Time,TemperatureF,DewpointF,PressureIn,WindDirection,WindDirectionDegrees,WindSpeedMPH,WindSpeedGustMPH,Humidity,HourlyPrecipIn,Conditions,Clouds,dailyrainin,SoftwareType,DateUTC
2013-06-20 00:00:00,67.2,57.5,30.07,North,355,0.0,1.0,71,0.00,,,0.00,VWS V14.01,2013-06-20 04:00:00,
2013-06-20 00:01:00,67.2,57.5,30.07,North,356,0.0,0.0,71,0.00,,,0.00,VWS V14.01,2013-06-20 04:01:00,
2013-06-20 00:06:00,67.1,57.4,30.07,North,356,0.0,0.0,71,0.00,,,0.00,VWS V14.01,2013-06-20 04:06:00,
2013-06-20 00:11:00,66.9,57.2,30.07,North,356,0.0,0.0,71,0.00,,,0.00,VWS V14.01,2013-06-20 04:11:00,
2013-06-20 00:16:00,66.7,57.0,30.08,North,355,0.0,0.0,71,0.00,,,0.00,VWS V14.01,2013-06-20 04:16:00,
2013-06-20 00:21:00,66.3,56.6,30.08,North,355,0.0,0.0,71,0.00,,,0.00,VWS V14.01,2013-06-20 04:21:00,
2013-06-20 00:26:00,66.3,56.6,30.08,North,356,0.0,0.0,71,0.00,,,0.00,VWS V14.01,2013-06-20 04:26:00,
2013-06-20 00:30:00,66.3,56.6,30.08,North,355,0.0,0.0,71,0.00,,,0.00,VWS V14.01,2013-06-20 04:30:00,
2013-06-20 00:31:00,66.1,56.4,30.08,North,356,0.0,0.0,71,0.00,,,0.00,VWS V14.01,2013-06-20 04:31:00,
2013-06-20 00:36:00,66.0,56.7,30.08,North,356,0.0,0.0,72,0.00,,,0.00,VWS V14.01,2013-06-20 04:36:00,
2013-06-20 00:41:00,66.1,56.8,30.08,North,355,0.0,0.0,72,0.00,,,0.00,VWS V14.01,2013-06-20 04:41:00,
2013-06-20 00:46:00,66.1,56.4,30.08,North,355,0.0,0.0,71,0.00,,,0.00,VWS V14.01,2013-06-20 04:46:00,
2013-06-20 00:51:00,66.0,56.7,30.08,North,356,0.0,0.0,72,0.00,,,0.00,VWS V14.01,2013-06-20 04:51:00,
2013-06-20 00:56:00,65.9,56.6,30.08,North,356,0.0,0.0,72,0.00,,,0.00,VWS V14.01,2013-06-20 04:56:00,
2013-06-20 01:00:00,65.9,56.6,30.08,North,355,0.0,0.0,72,0.00,,,0.00,VWS V14.01,2013-06-20 05:00:00,
2013-06-20 01:01:00,65.8,56.5,30.08,North,355,0.0,0.0,72,0.00,,,0.00,VWS V14.01,2013-06-20 05:01:00,
2013-06-20 01:06:00,65.8,56.5,30.08,North,354,0.0,0.0,72,0.00,,,0.00,VWS V14.01,2013-06-20 05:06:00,
2013-06-20 01:11:00,65.8,56.5,30.08,North,354,0.0,0.0,72,0.00,,,0.00,VWS V14.01,2013-06-20 05:11:00,
2013-06-20 01:16:00,65.8,56.2,30.08,North,354,0.0,0.0,71,0.00,,,0.00,VWS V14.01,2013-06-20 05:16:00,
2013-06-20 01:21:00,66.0,56.3,30.08,North,354,0.0,0.0,71,0.00,,,0.00,VWS V14.01,2013-06-20 05:21:00,
2013-06-20 01:26:00,66.0,56.3,30.08,SE,145,0.0,2.0,71,0.00,,,0.00,VWS V14.01,2013-06-20 05:26:00,
2013-06-20 01:30:00,66.0,56.3,30.08,SE,145,0.0,2.0,71,0.00,,,0.00,VWS V14.01,2013-06-20 05:30:00,
2013-06-20 01:31:00,66.3,56.2,30.08,SE,133,0.0,1.0,70,0.00,,,0.00,VWS V14.01,2013-06-20 05:31:00,
2013-06-20 01:36:00,66.2,56.1,30.08,SE,128,0.0,1.0,70,0.00,,,0.00,VWS V14.01,2013-06-20 05:36:00,
2013-06-20 01:41:00,66.1,56.4,30.08,SE,134,0.0,1.0,71,0.00,,,0.00,VWS V14.01,2013-06-20 05:41:00,
2013-06-20 01:46:00,66.2,56.1,30.08,SE,135,0.0,2.0,70,0.00,,,0.00,VWS V14.01,2013-06-20 05:46:00,
2013-06-20 01:51:00,66.1,56.0,30.08,SE,135,0.0,2.0,70,0.00,,,0.00,VWS V14.01,2013-06-20 05:51:00,
2013-06-20 01:56:00,66.0,56.0,30.08,SE,135,0.0,2.0,70,0.00,,,0.00,VWS V14.01,2013-06-20 05:56:00,
2013-06-20 02:00:00,66.0,56.0,30.08,SE,135,0.0,2.0,70,0.00,,,0.00,VWS V14.01,2013-06-20 06:00:00,
2013-06-20 02:01:00,65.7,56.0,30.08,SE,135,0.0,0.0,71,0.00,,,0.00,VWS V14.01,2013-06-20 06:01:00,
2013-06-20 02:06:00,65.5,55.9,30.08,SE,136,0.0,0.0,71,0.00,,,0.00,VWS V14.01,2013-06-20 06:06:00,
2013-06-20 02:11:00,65.3,56.0,30.08,SE,137,0.0,0.0,72,0.00,,,0.00,VWS V14.01,2013-06-20 06:11:00,
2013-06-20 02:16:00,65.4,56.2,30.08,SE,136,0.0,0.0,72,0.00,,,0.00,VWS V14.01,2013-06-20 06:16:00,
2013-06-20 02:21:00,65.4,55.8,30.08,SE,136,0.0,0.0,71,0.00,,,0.00,VWS V14.01,2013-06-20 06:21:00,
2013-06-20 02:26:00,65.2,56.0,30.08,SE,136,0.0,0.0,72,0.00,,,0.00,VWS V14.01,2013-06-20 06:26:00,
2013-06-20 02:30:00,65.2,56.0,30.08,SE,136,0.0,0.0,72,0.00,,,0.00,VWS V14.01,2013-06-20 06:30:00,
2013-06-20 02:31:00,65.1,55.9,30.08,SE,137,0.0,1.0,72,0.00,,,0.00,VWS V14.01,2013-06-20 06:31:00,
2013-06-20 02:36:00,65.0,55.8,30.08,SE,136,0.0,1.0,72,0.00,,,0.00,VWS V14.01,2013-06-20 06:36:00,
2013-06-20 02:41:00,65.1,55.9,30.08,SE,136,0.0,1.0,72,0.00,,,0.00,VWS V14.01,2013-06-20 06:41:00,
2013-06-20 02:46:00,65.1,55.9,30.08,SE,136,0.0,1.0,72,0.00,,,0.00,VWS V14.01,2013-06-20 06:46:00,
2013-06-20 02:51:00,65.4,56.2,30.08,SE,132,0.0,1.0,72,0.00,,,0.00,VWS V14.01,2013-06-20 06:51:00,
2013-06-20 02:56:00,65.5,56.2,30.08,SE,133,0.0,1.0,72,0.00,,,0.00,VWS V14.01,2013-06-20 06:56:00,
2013-06-20 03:00:00,65.5,56.2,30.08,SE,133,0.0,1.0,72,0.00,,,0.00,VWS V14.01,2013-06-20 07:00:00,
2013-06-20 03:01:00,65.4,56.2,30.08,SE,133,0.0,0.0,72,0.00,,,0.00,VWS V14.01,2013-06-20 07:01:00,
2013-06-20 03:06:00,65.2,56.0,30.08,SE,133,0.0,0.0,72,0.00,,,0.00,VWS V14.01,2013-06-20 07:06:00,
2013-06-20 03:11:00,65.0,56.2,30.08,SE,132,0.0,0.0,73,0.00,,,0.00,VWS V14.01,2013-06-20 07:11:00,
2013-06-20 03:16:00,64.6,55.8,30.08,SE,132,0.0,0.0,73,0.00,,,0.00,VWS V14.01,2013-06-20 07:16:00,
2013-06-20 03:21:00,64.3,55.8,30.09,SE,133,0.0,0.0,74,0.00,,,0.00,VWS V14.01,2013-06-20 07:21:00,
2013-06-20 03:26:00,64.1,56.0,30.09,SE,133,0.0,0.0,75,0.00,,,0.00,VWS V14.01,2013-06-20 07:26:00,
2013-06-20 03:30:00,64.1,56.0,30.09,SE,132,0.0,0.0,75,0.00,,,0.00,VWS V14.01,2013-06-20 07:30:00,
2013-06-20 03:31:00,63.9,56.2,30.09,SE,133,0.0,0.0,76,0.00,,,0.00,VWS V14.01,2013-06-20 07:31:00,
2013-06-20 03:36:00,64.0,56.3,30.09,SE,133,0.0,0.0,76,0.00,,,0.00,VWS V14.01,2013-06-20 07:36:00,
2013-06-20 03:41:00,64.1,56.4,30.08,SE,132,0.0,0.0,76,0.00,,,0.00,VWS V14.01,2013-06-20 07:41:00,
2013-06-20 03:46:00,64.2,56.5,30.08,SE,133,0.0,0.0,76,0.00,,,0.00,VWS V14.01,2013-06-20 07:46:00,
2013-06-20 03:51:00,63.9,56.2,30.09,SE,132,0.0,0.0,76,0.00,,,0.00,VWS V14.01,2013-06-20 07:51:00,
2013-06-20 03:56:00,63.8,56.5,30.09,SE,133,0.0,0.0,77,0.00,,,0.00,VWS V14.01,2013-06-20 07:56:00,
2013-06-20 04:00:00,63.8,56.5,30.09,SE,132,0.0,0.0,77,0.00,,,0.00,VWS V14.01,2013-06-20 08:00:00,
2013-06-20 04:01:00,63.7,56.4,30.09,SE,132,0.0,0.0,77,0.00,,,0.00,VWS V14.01,2013-06-20 08:01:00,
2013-06-20 04:06:00,63.4,56.4,30.09,SE,133,0.0,0.0,78,0.00,,,0.00,VWS V14.01,2013-06-20 08:06:00,
2013-06-20 04:11:00,63.5,56.5,30.09,SE,133,0.0,0.0,78,0.00,,,0.00,VWS V14.01,2013-06-20 08:11:00,
2013-06-20 04:16:00,63.5,56.5,30.09,SE,132,0.0,0.0,78,0.00,,,0.00,VWS V14.01,2013-06-20 08:16:00,
2013-06-20 04:21:00,63.4,56.0,30.09,SE,133,0.0,0.0,78,0.00,,,0.00,weatherlink.com 1.10,2013-06-20 08:21:00,
2013-06-20 04:25:00,63.4,56.8,30.09,SE,133,0.0,0.0,79,0.00,,,0.00,VWS V14.01,2013-06-20 08:25:00,
2013-06-20 04:30:00,63.4,56.8,30.09,SE,133,0.0,0.0,79,0.00,,,0.00,VWS V14.01,2013-06-20 08:30:00,
2013-06-20 04:35:00,63.4,56.8,30.09,SE,132,0.0,0.0,79,0.00,,,0.00,VWS V14.01,2013-06-20 08:35:00,
2013-06-20 04:40:00,63.5,56.9,30.09,SE,133,0.0,0.0,79,0.00,,,0.00,VWS V14.01,2013-06-20 08:40:00,
2013-06-20 04:45:00,63.5,56.9,30.09,SE,133,0.0,0.0,79,0.00,,,0.00,VWS V14.01,2013-06-20 08:45:00,
2013-06-20 04:50:00,63.5,56.5,30.09,SE,132,0.0,0.0,78,0.00,,,0.00,VWS V14.01,2013-06-20 08:50:00,
2013-06-20 04:55:00,63.6,56.6,30.09,SE,133,0.0,0.0,78,0.00,,,0.00,VWS V14.01,2013-06-20 08:55:00,
2013-06-20 05:00:00,63.6,56.6,30.09,SE,132,0.0,0.0,78,0.00,,,0.00,VWS V14.01,2013-06-20 09:00:00,
2013-06-20 05:05:00,63.5,56.5,30.10,SE,133,0.0,0.0,78,0.00,,,0.00,VWS V14.01,2013-06-20 09:05:00,
2013-06-20 05:10:00,63.5,56.9,30.10,SE,132,0.0,0.0,79,0.00,,,0.00,VWS V14.01,2013-06-20 09:10:00,
2013-06-20 05:15:00,63.4,56.8,30.10,SE,133,0.0,0.0,79,0.00,,,0.00,VWS V14.01,2013-06-20 09:15:00,
2013-06-20 05:20:00,63.2,56.6,30.10,SE,133,0.0,0.0,79,0.00,,,0.00,VWS V14.01,2013-06-20 09:20:00,
2013-06-20 05:25:00,63.0,56.7,30.10,SE,133,0.0,0.0,80,0.00,,,0.00,VWS V14.01,2013-06-20 09:25:00,
2013-06-20 05:30:00,62.9,56.6,30.10,SE,132,0.0,0.0,80,0.00,,,0.00,VWS V14.01,2013-06-20 09:30:00,
2013-06-20 05:35:00,62.9,56.6,30.10,SE,133,0.0,0.0,80,0.00,,,0.00,VWS V14.01,2013-06-20 09:35:00,
2013-06-20 05:40:00,62.8,56.5,30.10,SE,133,0.0,0.0,80,0.00,,,0.00,VWS V14.01,2013-06-20 09:40:00,
2013-06-20 05:45:00,62.7,56.8,30.10,SE,133,0.0,0.0,81,0.00,,,0.00,VWS V14.01,2013-06-20 09:45:00,
2013-06-20 05:50:00,62.7,56.8,30.10,SE,133,0.0,0.0,81,0.00,,,0.00,VWS V14.01,2013-06-20 09:50:00,
2013-06-20 05:55:00,62.7,56.8,30.10,SE,132,0.0,0.0,81,0.00,,,0.00,VWS V14.01,2013-06-20 09:55:00,
2013-06-20 06:00:00,62.7,56.8,30.10,SE,132,0.0,0.0,81,0.00,,,0.00,VWS V14.01,2013-06-20 10:00:00,
2013-06-20 06:05:00,62.6,56.7,30.10,SE,133,0.0,0.0,81,0.00,,,0.00,VWS V14.01,2013-06-20 10:05:00,
2013-06-20 06:10:00,62.6,56.7,30.10,SE,133,0.0,0.0,81,0.00,,,0.00,VWS V14.01,2013-06-20 10:10:00,
2013-06-20 06:15:00,62.5,56.6,30.11,SE,134,0.0,0.0,81,0.00,,,0.00,VWS V14.01,2013-06-20 10:15:00,
2013-06-20 06:20:00,62.5,56.6,30.11,SE,134,0.0,0.0,81,0.00,,,0.00,VWS V14.01,2013-06-20 10:20:00,
2013-06-20 06:25:00,62.5,56.6,30.11,SE,140,0.0,0.0,81,0.00,,,0.00,VWS V14.01,2013-06-20 10:25:00,
2013-06-20 06:30:00,62.5,56.9,30.11,SE,140,0.0,0.0,82,0.00,,,0.00,VWS V14.01,2013-06-20 10:30:00,
2013-06-20 06:35:00,62.4,56.8,30.11,SE,142,0.0,0.0,82,0.00,,,0.00,VWS V14.01,2013-06-20 10:35:00,
2013-06-20 06:40:00,62.5,56.9,30.11,SE,142,0.0,0.0,82,0.00,,,0.00,VWS V14.01,2013-06-20 10:40:00,
2013-06-20 06:45:00,62.5,56.9,30.11,SE,142,0.0,0.0,82,0.00,,,0.00,VWS V14.01,2013-06-20 10:45:00,
2013-06-20 06:50:00,62.9,57.3,30.11,South,183,0.0,0.0,82,0.00,,,0.00,VWS V14.01,2013-06-20 10:50:00,
2013-06-20 06:55:00,63.2,57.3,30.11,SE,132,0.0,0.0,81,0.00,,,0.00,VWS V14.01,2013-06-20 10:55:00,
2013-06-20 07:00:00,63.7,57.4,30.11,SE,133,0.0,2.0,80,0.00,,,0.00,VWS V14.01,2013-06-20 11:00:00,
2013-06-20 07:05:00,64.1,57.5,30.11,SE,129,0.0,2.0,79,0.00,,,0.00,VWS V14.01,2013-06-20 11:05:00,
2013-06-20 07:10:00,64.2,57.6,30.11,SE,131,0.0,3.0,79,0.00,,,0.00,VWS V14.01,2013-06-20 11:10:00,
2013-06-20 07:15:00,64.4,57.4,30.12,SE,133,0.0,3.0,78,0.00,,,0.00,VWS V14.01,2013-06-20 11:15:00,
2013-06-20 07:20:00,64.6,57.6,30.12,SE,145,0.0,3.0,78,0.00,,,0.00,VWS V14.01,2013-06-20 11:20:00,
2013-06-20 07:25:00,64.8,57.8,30.12,ESE,116,0.0,3.0,78,0.00,,,0.00,VWS V14.01,2013-06-20 11:25:00,
2013-06-20 07:30:00,65.0,58.0,30.12,ESE,117,0.0,0.0,78,0.00,,,0.00,VWS V14.01,2013-06-20 11:30:00,
2013-06-20 07:35:00,65.3,57.9,30.12,SE,142,0.0,1.0,77,0.00,,,0.00,VWS V14.01,2013-06-20 11:35:00,
2013-06-20 07:40:00,65.8,58.0,30.12,SE,139,0.0,2.0,76,0.00,,,0.00,VWS V14.01,2013-06-20 11:40:00,
2013-06-20 07:45:00,66.2,58.4,30.12,SE,133,0.0,3.0,76,0.00,,,0.00,VWS V14.01,2013-06-20 11:45:00,
2013-06-20 07:50:00,66.6,58.4,30.12,SE,136,0.0,3.0,75,0.00,,,0.00,VWS V14.01,2013-06-20 11:50:00,
2013-06-20 07:55:00,67.0,58.5,30.12,SE,142,2.0,3.0,74,0.00,,,0.00,VWS V14.01,2013-06-20 11:55:00,
2013-06-20 08:00:00,67.3,58.7,30.12,ESE,117,0.0,3.0,74,0.00,,,0.00,VWS V14.01,2013-06-20 12:00:00,
2013-06-20 08:05:00,67.6,58.7,30.12,SE,128,0.0,3.0,73,0.00,,,0.00,VWS V14.01,2013-06-20 12:05:00,
2013-06-20 08:10:00,67.9,58.9,30.12,SE,145,1.0,4.0,73,0.00,,,0.00,VWS V14.01,2013-06-20 12:10:00,
2013-06-20 08:15:00,68.1,59.1,30.13,SE,125,3.0,4.0,73,0.00,,,0.00,VWS V14.01,2013-06-20 12:15:00,
2013-06-20 08:20:00,68.4,59.0,30.13,SSE,162,2.0,5.0,72,0.00,,,0.00,VWS V14.01,2013-06-20 12:20:00,
2013-06-20 08:25:00,68.6,59.2,30.13,ESE,110,2.0,5.0,72,0.00,,,0.00,VWS V14.01,2013-06-20 12:25:00,
2013-06-20 08:30:00,68.8,59.4,30.13,SSE,152,1.0,4.0,72,0.00,,,0.00,VWS V14.01,2013-06-20 12:30:00,
2013-06-20 08:35:00,69.2,59.4,30.13,SSE,148,3.0,4.0,71,0.00,,,0.00,VWS V14.01,2013-06-20 12:35:00,
2013-06-20 08:40:00,69.7,59.9,30.13,SW,231,3.0,4.0,71,0.00,,,0.00,VWS V14.01,2013-06-20 12:40:00,
2013-06-20 08:45:00,69.8,59.6,30.13,SE,136,2.0,4.0,70,0.00,,,0.00,VWS V14.01,2013-06-20 12:45:00,
2013-06-20 08:50:00,70.4,60.6,30.13,SE,145,2.0,4.0,71,0.00,,,0.00,VWS V14.01,2013-06-20 12:50:00,
2013-06-20 08:55:00,70.9,60.6,30.13,South,174,1.0,5.0,70,0.00,,,0.00,VWS V14.01,2013-06-20 12:55:00,
2013-06-20 09:00:00,71.5,61.2,30.13,SSE,158,3.0,4.0,70,0.00,,,0.00,VWS V14.01,2013-06-20 13:00:00,
2013-06-20 09:05:00,72.2,60.7,30.13,SW,232,1.0,5.0,67,0.00,,,0.00,VWS V14.01,2013-06-20 13:05:00,
2013-06-20 09:10:00,72.7,61.1,30.13,SE,146,1.0,5.0,67,0.00,,,0.00,VWS V14.01,2013-06-20 13:10:00,
2013-06-20 09:15:00,73.2,61.2,30.13,South,172,2.0,5.0,66,0.00,,,0.00,VWS V14.01,2013-06-20 13:15:00,
2013-06-20 09:20:00,73.7,61.2,30.13,SSE,148,3.0,7.0,65,0.00,,,0.00,VWS V14.01,2013-06-20 13:20:00,
2013-06-20 09:25:00,73.9,61.0,30.13,SE,131,3.0,7.0,64,0.00,,,0.00,VWS V14.01,2013-06-20 13:25:00,
2013-06-20 09:30:00,74.0,61.1,30.14,SE,145,2.0,5.0,64,0.00,,,0.00,VWS V14.01,2013-06-20 13:30:00,
2013-06-20 09:35:00,74.3,61.3,30.14,SSW,198,2.0,5.0,64,0.00,,,0.00,VWS V14.01,2013-06-20 13:35:00,
2013-06-20 09:40:00,74.6,61.6,30.14,SE,134,2.0,5.0,64,0.00,,,0.00,VWS V14.01,2013-06-20 13:40:00,
2013-06-20 09:45:00,74.7,61.7,30.14,SE,142,5.0,7.0,64,0.00,,,0.00,VWS V14.01,2013-06-20 13:45:00,
2013-06-20 09:50:00,74.7,61.7,30.14,WNW,297,3.0,8.0,64,0.00,,,0.00,VWS V14.01,2013-06-20 13:50:00,
2013-06-20 09:55:00,75.2,63.1,30.14,ESE,117,0.0,8.0,66,0.00,,,0.00,VWS V14.01,2013-06-20 13:55:00,
2013-06-20 10:00:00,76.1,62.6,30.14,WSW,255,2.0,3.0,63,0.00,,,0.00,VWS V14.01,2013-06-20 14:00:00,
2013-06-20 10:05:00,77.0,63.5,30.14,ESE,104,4.0,4.0,63,0.00,,,0.00,VWS V14.01,2013-06-20 14:05:00,
2013-06-20 10:10:00,77.6,63.6,30.14,SE,128,4.0,6.0,62,0.00,,,0.00,VWS V14.01,2013-06-20 14:10:00,
2013-06-20 10:15:00,77.8,63.3,30.14,SSE,155,3.0,7.0,61,0.00,,,0.00,VWS V14.01,2013-06-20 14:15:00,
2013-06-20 10:20:00,77.9,63.8,30.14,SSE,158,2.0,7.0,62,0.00,,,0.00,VWS V14.01,2013-06-20 14:20:00,
2013-06-20 10:25:00,78.3,63.3,30.14,SSE,160,3.0,7.0,60,0.00,,,0.00,VWS V14.01,2013-06-20 14:25:00,
2013-06-20 10:30:00,78.5,64.9,30.13,WNW,282,4.0,4.0,63,0.00,,,0.00,VWS V14.01,2013-06-20 14:30:00,
2013-06-20 10:35:00,78.6,64.0,30.13,SSE,148,2.0,4.0,61,0.00,,,0.00,VWS V14.01,2013-06-20 14:35:00,
2013-06-20 10:40:00,78.5,64.9,30.13,WSW,239,1.0,4.0,63,0.00,,,0.00,VWS V14.01,2013-06-20 14:40:00,
2013-06-20 10:45:00,78.1,64.0,30.13,SE,131,1.0,8.0,62,0.00,,,0.00,VWS V14.01,2013-06-20 14:45:00,
2013-06-20 10:50:00,78.4,65.2,30.13,SE,126,2.0,8.0,64,0.00,,,0.00,VWS V14.01,2013-06-20 14:50:00,
2013-06-20 10:55:00,78.7,65.5,30.13,WSW,253,0.0,8.0,64,0.00,,,0.00,VWS V14.01,2013-06-20 14:55:00,
2013-06-20 11:00:00,78.9,65.2,30.13,ESE,107,0.0,6.0,63,0.00,,,0.00,VWS V14.01,2013-06-20 15:00:00,
2013-06-20 11:05:00,79.5,65.3,30.13,East,98,0.0,6.0,62,0.00,,,0.00,VWS V14.01,2013-06-20 15:05:00,
2013-06-20 11:10:00,80.1,65.4,30.13,West,276,1.0,6.0,61,0.00,,,0.00,VWS V14.01,2013-06-20 15:10:00,
2013-06-20 11:15:00,79.8,64.7,30.13,ESE,111,4.0,6.0,60,0.00,,,0.00,VWS V14.01,2013-06-20 15:15:00,
2013-06-20 11:20:00,79.8,65.6,30.14,West,273,1.0,6.0,62,0.00,,,0.00,VWS V14.01,2013-06-20 15:20:00,
2013-06-20 11:25:00,80.0,65.4,30.13,South,181,2.0,6.0,61,0.00,,,0.00,VWS V14.01,2013-06-20 15:25:00,
2013-06-20 11:30:00,80.1,65.0,30.14,SW,221,2.0,7.0,60,0.00,,,0.00,VWS V14.01,2013-06-20 15:30:00,
2013-06-20 11:35:00,80.4,65.7,30.14,WSW,241,1.0,7.0,61,0.00,,,0.00,VWS V14.01,2013-06-20 15:35:00,
2013-06-20 11:40:00,80.7,65.5,30.14,SSW,204,2.0,7.0,60,0.00,,,0.00,VWS V14.01,2013-06-20 15:40:00,
2013-06-20 11:45:00,80.7,64.6,30.14,SSE,159,5.0,5.0,58,0.00,,,0.00,VWS V14.01,2013-06-20 15:45:00,
2013-06-20 11:50:00,80.8,65.2,30.14,NW,322,2.0,6.0,59,0.00,,,0.00,VWS V14.01,2013-06-20 15:50:00,
2013-06-20 11:55:00,81.3,66.1,30.14,SSE,155,0.0,6.0,60,0.00,,,0.00,VWS V14.01,2013-06-20 15:55:00,
2013-06-20 12:00:00,82.2,65.0,30.14,NNE,18,0.0,5.0,56,0.00,,,0.00,VWS V14.01,2013-06-20 16:00:00,
2013-06-20 12:05:00,83.0,65.7,30.13,SW,222,2.0,5.0,56,0.00,,,0.00,VWS V14.01,2013-06-20 16:05:00,
2013-06-20 12:10:00,83.4,66.1,30.13,NW,325,0.0,5.0,56,0.00,,,0.00,VWS V14.01,2013-06-20 16:10:00,
2013-06-20 12:15:00,83.6,66.8,30.13,NW,319,2.0,5.0,57,0.00,,,0.00,VWS V14.01,2013-06-20 16:15:00,
2013-06-20 12:20:00,83.8,65.4,30.13,SW,215,2.0,7.0,54,0.00,,,0.00,VWS V14.01,2013-06-20 16:20:00,
2013-06-20 12:25:00,83.7,65.3,30.13,SE,142,2.0,7.0,54,0.00,,,0.00,VWS V14.01,2013-06-20 16:25:00,
2013-06-20 12:30:00,83.3,64.9,30.13,SSW,201,3.0,5.0,54,0.00,,,0.00,VWS V14.01,2013-06-20 16:30:00,
2013-06-20 12:35:00,83.0,65.2,30.13,SW,226,4.0,7.0,55,0.00,,,0.00,VWS V14.01,2013-06-20 16:35:00,
2013-06-20 12:40:00,83.0,66.2,30.13,SSW,194,2.0,7.0,57,0.00,,,0.00,VWS V14.01,2013-06-20 16:40:00,
2013-06-20 12:45:00,83.0,64.7,30.13,SE,145,3.0,7.0,54,0.00,,,0.00,VWS V14.01,2013-06-20 16:45:00,
2013-06-20 12:50:00,82.8,65.5,30.13,SSW,197,2.0,7.0,56,0.00,,,0.00,VWS V14.01,2013-06-20 16:50:00,
2013-06-20 12:55:00,82.7,65.4,30.12,WSW,243,1.0,7.0,56,0.00,,,0.00,VWS V14.01,2013-06-20 16:55:00,
2013-06-20 13:00:00,82.7,65.4,30.12,NNE,32,1.0,3.0,56,0.00,,,0.00,VWS V14.01,2013-06-20 17:00:00,
2013-06-20 13:05:00,83.3,66.0,30.12,WNW,285,1.0,5.0,56,0.00,,,0.00,VWS V14.01,2013-06-20 17:05:00,
2013-06-20 13:10:00,82.8,65.5,30.12,SSW,195,0.0,5.0,56,0.00,,,0.00,VWS V14.01,2013-06-20 17:10:00,
2013-06-20 13:15:00,83.2,65.9,30.12,WNW,284,2.0,5.0,56,0.00,,,0.00,VWS V14.01,2013-06-20 17:15:00,
2013-06-20 13:20:00,83.3,66.0,30.12,WSW,257,0.0,5.0,56,0.00,,,0.00,VWS V14.01,2013-06-20 17:20:00,
2013-06-20 13:25:00,84.3,65.3,30.12,SW,224,3.0,5.0,53,0.00,,,0.00,VWS V14.01,2013-06-20 17:25:00,
2013-06-20 13:30:00,84.1,64.0,30.12,SE,142,5.0,7.0,51,0.00,,,0.00,VWS V14.01,2013-06-20 17:30:00,
2013-06-20 13:35:00,83.6,64.7,30.12,WNW,300,2.0,7.0,53,0.00,,,0.00,VWS V14.01,2013-06-20 17:35:00,
2013-06-20 13:40:00,83.5,63.5,30.12,SW,233,3.0,7.0,51,0.00,,,0.00,VWS V14.01,2013-06-20 17:40:00,
2013-06-20 13:45:00,83.6,65.2,30.12,NE,43,1.0,7.0,54,0.00,,,0.00,VWS V14.01,2013-06-20 17:45:00,
2013-06-20 13:50:00,84.4,65.9,30.12,WNW,297,2.0,7.0,54,0.00,,,0.00,VWS V14.01,2013-06-20 17:50:00,
2013-06-20 13:55:00,84.4,62.0,30.12,ESE,112,2.0,7.0,47,0.00,,,0.00,VWS V14.01,2013-06-20 17:55:00,
2013-06-20 14:00:00,85.8,65.0,30.12,SW,232,1.0,3.0,50,0.00,,,0.00,VWS V14.01,2013-06-20 18:00:00,
2013-06-20 14:05:00,85.6,64.8,30.11,West,264,1.0,5.0,50,0.00,,,0.00,VWS V14.01,2013-06-20 18:05:00,
2013-06-20 14:10:00,85.4,64.1,30.11,South,187,3.0,5.0,49,0.00,,,0.00,VWS V14.01,2013-06-20 18:10:00,
2013-06-20 14:15:00,85.2,64.5,30.11,ESE,120,2.0,5.0,50,0.00,,,0.00,VWS V14.01,2013-06-20 18:15:00,
2013-06-20 14:20:00,85.4,64.7,30.11,NNW,347,1.0,5.0,50,0.00,,,0.00,VWS V14.01,2013-06-20 18:20:00,
2013-06-20 14:25:00,85.6,66.0,30.11,SE,138,1.0,5.0,52,0.00,,,0.00,VWS V14.01,2013-06-20 18:25:00,
2013-06-20 14:30:00,85.7,66.1,30.11,NW,305,2.0,5.0,52,0.00,,,0.00,VWS V14.01,2013-06-20 18:30:00,
2013-06-20 14:35:00,85.6,65.4,30.11,SSW,212,1.0,5.0,51,0.00,,,0.00,VWS V14.01,2013-06-20 18:35:00,
2013-06-20 14:40:00,86.1,63.5,30.11,SW,226,2.0,5.0,47,0.00,,,0.00,VWS V14.01,2013-06-20 18:40:00,
2013-06-20 14:45:00,86.1,65.3,30.11,SW,218,2.0,6.0,50,0.00,,,0.00,VWS V14.01,2013-06-20 18:45:00,
2013-06-20 14:50:00,86.3,63.7,30.11,SSE,148,0.0,6.0,47,0.00,,,0.00,VWS V14.01,2013-06-20 18:50:00,
2013-06-20 14:55:00,86.9,64.3,30.11,SE,134,3.0,6.0,47,0.00,,,0.00,VWS V14.01,2013-06-20 18:55:00,
2013-06-20 15:00:00,87.7,63.1,30.11,ESE,107,1.0,3.0,44,0.00,,,0.00,VWS V14.01,2013-06-20 19:00:00,
2013-06-20 15:05:00,87.6,64.3,30.11,SSE,153,1.0,3.0,46,0.00,,,0.00,VWS V14.01,2013-06-20 19:05:00,
2013-06-20 15:10:00,87.6,64.9,30.11,NW,311,2.0,10.0,47,0.00,,,0.00,VWS V14.01,2013-06-20 19:10:00,
2013-06-20 15:15:00,87.8,63.8,30.11,SSW,210,4.0,10.0,45,0.00,,,0.00,VWS V14.01,2013-06-20 19:15:00,
2013-06-20 15:20:00,87.5,64.2,30.11,SSW,200,5.0,10.0,46,0.00,,,0.00,VWS V14.01,2013-06-20 19:20:00,
2013-06-20 15:25:00,86.5,64.5,30.11,WNW,291,1.0,10.0,48,0.00,,,0.00,VWS V14.01,2013-06-20 19:25:00,
2013-06-20 15:30:00,85.4,63.5,30.11,ESE,114,3.0,5.0,48,0.00,,,0.00,VWS V14.01,2013-06-20 19:30:00,
2013-06-20 15:35:00,85.1,64.4,30.11,SW,218,0.0,5.0,50,0.00,,,0.00,VWS V14.01,2013-06-20 19:35:00,
2013-06-20 15:40:00,84.7,63.5,30.11,WNW,284,1.0,5.0,49,0.00,,,0.00,VWS V14.01,2013-06-20 19:40:00,
2013-06-20 15:45:00,84.3,64.2,30.10,NNW,342,0.0,5.0,51,0.00,,,0.00,VWS V14.01,2013-06-20 19:45:00,
2013-06-20 15:50:00,84.4,63.8,30.10,ESE,123,2.0,5.0,50,0.00,,,0.00,VWS V14.01,2013-06-20 19:50:00,
2013-06-20 15:55:00,84.7,62.9,30.10,SE,129,5.0,7.0,48,0.00,,,0.00,VWS V14.01,2013-06-20 19:55:00,
2013-06-20 16:00:00,84.5,62.7,30.10,ESE,122,4.0,6.0,48,0.00,,,0.00,VWS V14.01,2013-06-20 20:00:00,
2013-06-20 16:05:00,84.8,63.0,30.10,SE,145,4.0,6.0,48,0.00,,,0.00,VWS V14.01,2013-06-20 20:05:00,
2013-06-20 16:10:00,85.3,64.0,30.10,South,172,1.0,6.0,49,0.00,,,0.00,VWS V14.01,2013-06-20 20:10:00,
2013-06-20 16:15:00,85.7,62.6,30.10,SE,129,7.0,8.0,46,0.00,,,0.00,VWS V14.01,2013-06-20 20:15:00,
2013-06-20 16:20:00,85.2,62.7,30.09,SSE,156,4.0,8.0,47,0.00,,,0.00,VWS V14.01,2013-06-20 20:20:00,
2013-06-20 16:25:00,85.3,62.2,30.09,ESE,115,3.0,8.0,46,0.00,,,0.00,VWS V14.01,2013-06-20 20:25:00,
2013-06-20 16:30:00,85.6,62.5,30.09,South,190,3.0,6.0,46,0.00,,,0.00,VWS V14.01,2013-06-20 20:30:00,
2013-06-20 16:35:00,85.7,61.9,30.09,SSE,150,2.0,6.0,45,0.00,,,0.00,VWS V14.01,2013-06-20 20:35:00,
2013-06-20 16:40:00,85.9,62.7,30.09,SE,142,2.0,6.0,46,0.00,,,0.00,VWS V14.01,2013-06-20 20:40:00,
2013-06-20 16:45:00,86.2,62.4,30.09,SSE,165,4.0,6.0,45,0.00,,,0.00,VWS V14.01,2013-06-20 20:45:00,
2013-06-20 16:50:00,85.9,62.1,30.10,SW,219,1.0,6.0,45,0.00,,,0.00,VWS V14.01,2013-06-20 20:50:00,
2013-06-20 16:55:00,86.4,63.8,30.09,South,171,1.0,6.0,47,0.00,,,0.00,VWS V14.01,2013-06-20 20:55:00,
2013-06-20 17:00:00,86.7,62.2,30.09,SSE,160,5.0,8.0,44,0.00,,,0.00,VWS V14.01,2013-06-20 21:00:00,
2013-06-20 17:05:00,86.9,61.7,30.09,SE,142,2.0,2.0,43,0.00,,,0.00,VWS V14.01,2013-06-20 21:05:00,
2013-06-20 17:11:00,86.7,61.5,30.09,SE,146,3.0,3.0,43,0.00,,,0.00,VWS V14.01,2013-06-20 21:11:00,
2013-06-20 17:16:00,86.7,61.5,30.09,ESE,103,5.0,5.0,43,0.00,,,0.00,VWS V14.01,2013-06-20 21:16:00,
2013-06-20 17:21:00,86.3,61.8,30.09,East,86,1.0,5.0,44,0.00,,,0.00,VWS V14.01,2013-06-20 21:21:00,
2013-06-20 17:26:00,86.5,62.0,30.09,West,276,0.0,5.0,44,0.00,,,0.00,VWS V14.01,2013-06-20 21:26:00,
2013-06-20 17:30:00,86.5,62.0,30.09,SSW,194,2.0,5.0,44,0.00,,,0.00,VWS V14.01,2013-06-20 21:30:00,
2013-06-20 17:31:00,86.0,61.6,30.09,WSW,241,0.0,3.0,44,0.00,,,0.00,VWS V14.01,2013-06-20 21:31:00,
2013-06-20 17:36:00,86.5,62.0,30.09,SSW,203,0.0,3.0,44,0.00,,,0.00,VWS V14.01,2013-06-20 21:36:00,
2013-06-20 17:41:00,87.7,63.1,30.08,WNW,284,0.0,2.0,44,0.00,,,0.00,VWS V14.01,2013-06-20 21:41:00,
2013-06-20 17:46:00,88.7,62.0,30.08,NNW,347,1.0,3.0,41,0.00,,,0.00,VWS V14.01,2013-06-20 21:46:00,
2013-06-20 17:51:00,88.2,61.5,30.08,South,188,4.0,5.0,41,0.00,,,0.00,VWS V14.01,2013-06-20 21:51:00,
2013-06-20 17:56:00,87.9,61.3,30.08,SW,217,1.0,5.0,41,0.00,,,0.00,VWS V14.01,2013-06-20 21:56:00,
2013-06-20 18:00:00,87.9,61.3,30.08,WSW,249,4.0,5.0,41,0.00,,,0.00,VWS V14.01,2013-06-20 22:00:00,
2013-06-20 18:01:00,87.5,61.6,30.08,SSW,211,0.0,4.0,42,0.00,,,0.00,VWS V14.01,2013-06-20 22:01:00,
2013-06-20 18:06:00,86.8,60.3,30.08,SE,146,2.0,4.0,41,0.00,,,0.00,VWS V14.01,2013-06-20 22:06:00,
2013-06-20 18:11:00,86.4,59.9,30.07,SE,145,3.0,5.0,41,0.00,,,0.00,VWS V14.01,2013-06-20 22:11:00,
2013-06-20 18:16:00,86.5,60.7,30.07,SSW,200,2.0,5.0,42,0.00,,,0.00,VWS V14.01,2013-06-20 22:16:00,
2013-06-20 18:21:00,87.0,60.5,30.07,SE,146,4.0,6.0,41,0.00,,,0.00,VWS V14.01,2013-06-20 22:21:00,
2013-06-20 18:26:00,87.0,61.0,30.07,SSE,150,4.0,6.0,42,0.00,,,0.00,weatherlink.com 1.10,2013-06-20 22:26:00,
2013-06-20 18:30:00,87.0,61.2,30.07,SE,139,1.0,6.0,42,0.00,,,0.00,VWS V14.01,2013-06-20 22:30:00,
2013-06-20 18:31:00,87.6,61.7,30.07,SE,146,1.0,3.0,42,0.00,,,0.00,VWS V14.01,2013-06-20 22:31:00,
2013-06-20 18:36:00,87.9,60.6,30.07,SSE,166,1.0,1.0,40,0.00,,,0.00,VWS V14.01,2013-06-20 22:36:00,
2013-06-20 18:41:00,87.5,60.9,30.07,SSW,212,0.0,0.0,41,0.00,,,0.00,VWS V14.01,2013-06-20 22:41:00,
2013-06-20 18:46:00,87.6,61.0,30.07,WNW,296,3.0,5.0,41,0.00,,,0.00,VWS V14.01,2013-06-20 22:46:00,
2013-06-20 18:51:00,87.0,61.2,30.07,SSW,194,2.0,3.0,42,0.00,,,0.00,VWS V14.01,2013-06-20 22:51:00,
2013-06-20 18:56:00,86.8,61.0,30.07,SSE,147,3.0,4.0,42,0.00,,,0.00,VWS V14.01,2013-06-20 22:56:00,
2013-06-20 19:00:00,86.8,61.0,30.07,SSW,200,2.0,3.0,42,0.00,,,0.00,VWS V14.01,2013-06-20 23:00:00,
2013-06-20 19:02:00,86.4,60.6,30.07,SE,138,3.0,3.0,42,0.00,,,0.00,VWS V14.01,2013-06-20 23:02:00,
2013-06-20 19:07:00,85.8,61.4,30.07,SE,136,2.0,5.0,44,0.00,,,0.00,VWS V14.01,2013-06-20 23:07:00,
2013-06-20 19:12:00,85.5,62.4,30.07,SE,129,1.0,7.0,46,0.00,,,0.00,VWS V14.01,2013-06-20 23:12:00,
2013-06-20 19:17:00,85.3,62.2,30.07,SE,141,1.0,4.0,46,0.00,,,0.00,VWS V14.01,2013-06-20 23:17:00,
2013-06-20 19:22:00,85.2,62.7,30.07,SSE,148,4.0,4.0,47,0.00,,,0.00,VWS V14.01,2013-06-20 23:22:00,
2013-06-20 19:27:00,84.9,62.4,30.07,SSE,159,4.0,7.0,47,0.00,,,0.00,VWS V14.01,2013-06-20 23:27:00,
2013-06-20 19:30:00,85.0,62.5,30.07,South,186,3.0,4.0,47,0.00,,,0.00,VWS V14.01,2013-06-20 23:30:00,
2013-06-20 19:32:00,84.4,62.6,30.07,South,176,4.0,7.0,48,0.00,,,0.00,VWS V14.01,2013-06-20 23:32:00,
2013-06-20 19:38:00,84.3,62.5,30.07,SE,141,2.0,2.0,48,0.00,,,0.00,VWS V14.01,2013-06-20 23:38:00,
2013-06-20 19:43:00,84.2,62.4,30.07,ESE,120,4.0,5.0,48,0.00,,,0.00,VWS V14.01,2013-06-20 23:43:00,
2013-06-20 19:48:00,83.9,62.1,30.07,SE,133,3.0,5.0,48,0.00,,,0.00,VWS V14.01,2013-06-20 23:48:00,
2013-06-20 19:53:00,83.7,62.0,30.07,SSW,199,4.0,4.0,48,0.00,,,0.00,VWS V14.01,2013-06-20 23:53:00,
2013-06-20 19:58:00,83.5,62.3,30.07,ESE,121,2.0,5.0,49,0.00,,,0.00,VWS V14.01,2013-06-20 23:58:00,
2013-06-20 20:00:00,83.5,62.3,30.07,SSE,162,1.0,4.0,49,0.00,,,0.00,VWS V14.01,2013-06-21 00:00:00,
2013-06-20 20:03:00,83.3,62.2,30.07,SSE,154,0.0,5.0,49,0.00,,,0.00,VWS V14.01,2013-06-21 00:03:00,
2013-06-20 20:08:00,83.2,62.7,30.07,SSE,155,0.0,5.0,50,0.00,,,0.00,VWS V14.01,2013-06-21 00:08:00,
2013-06-20 20:13:00,82.9,62.4,30.07,South,169,1.0,3.0,50,0.00,,,0.00,VWS V14.01,2013-06-21 00:13:00,
2013-06-20 20:18:00,82.8,62.3,30.07,SE,129,2.0,4.0,50,0.00,,,0.00,VWS V14.01,2013-06-21 00:18:00,
2013-06-20 20:23:00,82.7,62.2,30.07,ESE,122,2.0,3.0,50,0.00,,,0.00,VWS V14.01,2013-06-21 00:23:00,
2013-06-20 20:28:00,82.7,62.2,30.07,South,181,2.0,2.0,50,0.00,,,0.00,VWS V14.01,2013-06-21 00:28:00,
2013-06-20 20:30:00,82.7,62.2,30.07,SE,139,1.0,4.0,50,0.00,,,0.00,VWS V14.01,2013-06-21 00:30:00,
2013-06-20 20:33:00,82.4,61.9,30.07,South,174,2.0,3.0,50,0.00,,,0.00,VWS V14.01,2013-06-21 00:33:00,
2013-06-20 20:38:00,82.2,62.3,30.07,SSE,167,0.0,0.0,51,0.00,,,0.00,VWS V14.01,2013-06-21 00:38:00,
2013-06-20 20:43:00,81.9,61.5,30.07,SSE,166,0.0,2.0,50,0.00,,,0.00,VWS V14.01,2013-06-21 00:43:00,
2013-06-20 20:48:00,81.7,61.3,30.07,SSE,150,1.0,2.0,50,0.00,,,0.00,VWS V14.01,2013-06-21 00:48:00,
2013-06-20 20:53:00,81.6,61.7,30.07,South,187,0.0,0.0,51,0.00,,,0.00,VWS V14.01,2013-06-21 00:53:00,
2013-06-20 20:58:00,81.4,62.1,30.07,SSE,165,0.0,0.0,52,0.00,,,0.00,VWS V14.01,2013-06-21 00:58:00,
2013-06-20 21:00:00,81.5,61.7,30.07,SSE,165,0.0,2.0,51,0.00,,,0.00,VWS V14.01,2013-06-21 01:00:00,
2013-06-20 21:03:00,81.0,61.7,30.07,SE,135,1.0,1.0,52,0.00,,,0.00,VWS V14.01,2013-06-21 01:03:00,
2013-06-20 21:08:00,80.7,61.5,30.07,ESE,122,0.0,0.0,52,0.00,,,0.00,VWS V14.01,2013-06-21 01:08:00,
2013-06-20 21:13:00,80.3,61.6,30.07,ESE,122,0.0,0.0,53,0.00,,,0.00,VWS V14.01,2013-06-21 01:13:00,
2013-06-20 21:18:00,79.9,61.8,30.07,SSE,148,0.0,1.0,54,0.00,,,0.00,VWS V14.01,2013-06-21 01:18:00,
2013-06-20 21:23:00,79.5,61.9,30.07,SSE,148,0.0,1.0,55,0.00,,,0.00,VWS V14.01,2013-06-21 01:23:00,
2013-06-20 21:28:00,79.0,62.0,30.07,SSE,148,0.0,0.0,56,0.00,,,0.00,VWS V14.01,2013-06-21 01:28:00,
2013-06-20 21:30:00,79.3,61.8,30.07,SSE,148,0.0,1.0,55,0.00,,,0.00,VWS V14.01,2013-06-21 01:30:00,
2013-06-20 21:33:00,78.6,61.6,30.07,SSE,148,0.0,0.0,56,0.00,,,0.00,VWS V14.01,2013-06-21 01:33:00,
2013-06-20 21:38:00,78.2,61.2,30.07,SSE,148,0.0,0.0,56,0.00,,,0.00,VWS V14.01,2013-06-21 01:38:00,
2013-06-20 21:43:00,77.7,61.3,30.07,SSE,148,0.0,0.0,57,0.00,,,0.00,VWS V14.01,2013-06-21 01:43:00,
2013-06-20 21:48:00,77.3,60.9,30.07,SSE,148,0.0,0.0,57,0.00,,,0.00,VWS V14.01,2013-06-21 01:48:00,
2013-06-20 21:53:00,77.0,61.1,30.08,SSE,148,0.0,0.0,58,0.00,,,0.00,VWS V14.01,2013-06-21 01:53:00,
2013-06-20 21:58:00,76.5,60.6,30.08,SSE,148,0.0,0.0,58,0.00,,,0.00,VWS V14.01,2013-06-21 01:58:00,
2013-06-20 22:00:00,76.8,60.9,30.08,SSE,148,0.0,0.0,58,0.00,,,0.00,VWS V14.01,2013-06-21 02:00:00,
2013-06-20 22:03:00,75.9,61.0,30.08,SSE,148,0.0,0.0,60,0.00,,,0.00,VWS V14.01,2013-06-21 02:03:00,
2013-06-20 22:08:00,75.4,61.0,30.08,SSE,148,0.0,0.0,61,0.00,,,0.00,VWS V14.01,2013-06-21 02:08:00,
2013-06-20 22:13:00,75.3,60.9,30.08,SSE,148,0.0,0.0,61,0.00,,,0.00,VWS V14.01,2013-06-21 02:13:00,
2013-06-20 22:18:00,75.3,60.9,30.08,SSE,148,0.0,0.0,61,0.00,,,0.00,VWS V14.01,2013-06-21 02:18:00,
2013-06-20 22:23:00,74.9,60.6,30.09,SSE,148,0.0,0.0,61,0.00,,,0.00,VWS V14.01,2013-06-21 02:23:00,
2013-06-20 22:28:00,74.5,60.6,30.09,SSE,148,0.0,0.0,62,0.00,,,0.00,VWS V14.01,2013-06-21 02:28:00,
2013-06-20 22:30:00,74.7,60.4,30.09,SSE,148,0.0,0.0,61,0.00,,,0.00,VWS V14.01,2013-06-21 02:30:00,
2013-06-20 22:34:00,74.1,60.3,30.09,SSE,148,0.0,0.0,62,0.00,,,0.00,VWS V14.01,2013-06-21 02:34:00,
2013-06-20 22:39:00,74.0,60.6,30.09,SSE,148,0.0,0.0,63,0.00,,,0.00,VWS V14.01,2013-06-21 02:39:00,
2013-06-20 22:44:00,73.9,60.5,30.09,SSE,148,0.0,0.0,63,0.00,,,0.00,VWS V14.01,2013-06-21 02:44:00,
2013-06-20 22:49:00,73.9,61.0,30.09,SSE,148,0.0,0.0,64,0.00,,,0.00,VWS V14.01,2013-06-21 02:49:00,
2013-06-20 22:54:00,73.9,60.5,30.10,SSE,148,0.0,0.0,63,0.00,,,0.00,VWS V14.01,2013-06-21 02:54:00,
2013-06-20 22:59:00,73.8,60.9,30.10,SSE,148,0.0,0.0,64,0.00,,,0.00,VWS V14.01,2013-06-21 02:59:00,
2013-06-20 23:00:00,73.9,60.5,30.10,SSE,148,0.0,0.0,63,0.00,,,0.00,VWS V14.01,2013-06-21 03:00:00,
2013-06-20 23:04:00,73.5,60.6,30.10,SSE,148,0.0,0.0,64,0.00,,,0.00,VWS V14.01,2013-06-21 03:04:00,
2013-06-20 23:09:00,73.1,60.7,30.10,SSE,148,0.0,0.0,65,0.00,,,0.00,VWS V14.01,2013-06-21 03:09:00,
2013-06-20 23:14:00,73.6,61.1,30.10,SE,146,0.0,1.0,65,0.00,,,0.00,VWS V14.01,2013-06-21 03:14:00,
2013-06-20 23:19:00,73.9,61.0,30.10,SE,139,1.0,1.0,64,0.00,,,0.00,VWS V14.01,2013-06-21 03:19:00,
2013-06-20 23:24:00,73.9,61.0,30.10,SSE,148,0.0,1.0,64,0.00,,,0.00,VWS V14.01,2013-06-21 03:24:00,
2013-06-20 23:29:00,73.6,61.1,30.10,SSE,148,0.0,0.0,65,0.00,,,0.00,VWS V14.01,2013-06-21 03:29:00,
2013-06-20 23:30:00,73.8,60.9,30.10,SSE,148,0.0,1.0,64,0.00,,,0.00,VWS V14.01,2013-06-21 03:30:00,
2013-06-20 23:34:00,73.3,60.8,30.10,SSE,155,0.0,0.0,65,0.00,,,0.00,VWS V14.01,2013-06-21 03:34:00,
2013-06-20 23:39:00,73.2,60.7,30.10,SSE,155,0.0,0.0,65,0.00,,,0.00,VWS V14.01,2013-06-21 03:39:00,
2013-06-20 23:44:00,72.9,60.9,30.10,SSE,155,0.0,0.0,66,0.00,,,0.00,VWS V14.01,2013-06-21 03:44:00,
2013-06-20 23:49:00,72.6,61.0,30.11,SSE,155,0.0,0.0,67,0.00,,,0.00,VWS V14.01,2013-06-21 03:49:00,
2013-06-20 23:54:00,72.3,61.2,30.11,SSE,155,0.0,0.0,68,0.00,,,0.00,VWS V14.01,2013-06-21 03:54:00,
2013-06-20 23:59:00,72.2,61.1,30.11,SSE,155,0.0,0.0,68,0.00,,,0.00,VWS V14.01,2013-06-21 03:59:00,